Location: ČR
(50.0000°N, 15.0000°E)
Time: 16:49:05
(UTC+01:00)

Courier 1B - Pass Details

Date: 11 February 2026
Orbit: 962 x 1208 km, 28.3° (Epoch: 16 March)

Event Time Altitude Azimuth Distance (km) Brightness Sun altitude
Rises 01:12:21 0° 236° (WSW) 4,103 - -52.2°
Reaches altitude 10° 01:17:13 10° 211° (SSW) 3,120 - -51.9°
Maximum altitude 01:20:19 13° 187° (S) 2,889 - -51.6°
Drops below altitude 10° 01:23:23 10° 163° (SSE) 3,074 - -51.4°
Sets 01:28:06 0° 137° (SE) 3,985 - -51.1°
